Flag for Switzerland Weather past 2 weeks in Bellinzona, Ticino, Switzerland

Now
66 °F

Mild.


Feels Like: 66 °F
Forecast: 54 / 85 °F
Wind: 1 mph from Northwest

Location: Locarno-Magadino

Current Time: Aug 29, 2014 at 1:23:40 AM

Latest Report: Aug 29, 2014 at 12:00 AM


Visibility: N/A

Pressure: 30.08 "Hg

Humidity: 93%

Dew point: 64 °F

Location of BellinzonaLocation

Historic Weather in Bellinzona — Graph

°F

Bellinzona temperature yesterday

Maximum temperature yesterday: 76 °F (at 3:00 PM)
Minimum temperature yesterday: 57 °F (at 7:00 AM)
Average temperature yesterday: 68 °F

Past Weeks' High & Low Weather Summary

 TemperatureHumidityPressure
High85 °F (Aug 27, 4:00 PM)100% (Aug 27, 2:00 AM)30.13 "Hg (Aug 27, 2:00 AM)
Low47 °F (Aug 17, 6:00 AM)21% (Aug 27, 6:00 PM)29.74 "Hg (Aug 14, 4:00 PM)
Average65 °F75%29.94 "Hg
* Reported Midnight between Aug 13 and Aug 14 — Midnight between Aug 28 and Aug 29, Bellinzona, Weather by CustomWeather, © 2014

Note: Actual official high and low records may vary slightly from our data, if they occured in-between our weather recording intervals... More about our weather records

Advertising

Bellinzona weather history for previous 24 hours

 ConditionsComfort  
Time TempWeatherWind HumidityBarometerVisibility
12:00 AM
Aug 29
66 °FMild.1 mph93%30.08 "HgN/A
11:00 PM
Aug 28
66 °FMild.No wind94%30.07 "HgN/A
10:00 PM66 °FMild.1 mph90%30.06 "HgN/A
9:00 PM68 °FMild.2 mph82%30.04 "HgN/A
8:00 PM71 °FMild.3 mph73%30.02 "HgN/A
7:00 PM74 °FMild.5 mph65%30.00 "HgN/A
6:00 PM75 °FMild.6 mph62%30.00 "HgN/A
5:00 PM76 °FMild.12 mph60%30.00 "HgN/A
4:00 PM76 °FMild.9 mph58%30.01 "HgN/A
3:00 PM76 °FMild.13 mph60%30.01 "HgN/A
2:00 PM75 °FMild.10 mph59%30.02 "HgN/A
1:00 PM74 °FMild.12 mph61%30.03 "HgN/A
12:00 PM72 °FMild.10 mph64%30.04 "HgN/A
11:00 AM71 °FMild.9 mph54%30.04 "HgN/A
10:00 AM69 °FMild.5 mph56%30.04 "HgN/A
9:00 AM66 °FMild.2 mph62%30.03 "HgN/A
8:00 AM61 °FCool.No wind81%30.02 "HgN/A
7:00 AM57 °FCool.1 mph92%30.01 "HgN/A
6:00 AM58 °FCool.No wind89%30.00 "HgN/A
5:00 AM60 °FCool.1 mph78%29.97 "HgN/A
4:00 AM63 °FMild.5 mph64%29.96 "HgN/A
3:00 AM64 °FMild.6 mph61%29.95 "HgN/A
2:00 AM65 °FMild.8 mph57%29.94 "HgN/A
1:00 AM64 °FMild.5 mph66%29.94 "HgN/A
Weather by CustomWeather, © 2014

See weather overviewHow to use our weather pages